www.pogodaiklimat.ru

АРХИВ ПОГОДЫ в Ростове-на-Дону

Время (UTC), дата Ветер
(напр.,м/с)
 
Видим.   Явления Облачность Т
(С)
Тd
(С)
f
(%)
Тe
(С)
Тes
(С)
Комфортность P
(гПа)
Po
(гПа)
Тmin
(С)
Tmax
(С)
R
(мм)
S
(см)
12 13.12 З 3 10 км 4/4 570 м
[Sc]
+4.1 +0.5 77 +1 +1 тепло 1026.1 1016.7
15 13.12 З 2 3900 м дымка 4/4 200 м
[St]
+0.2 -0.5 95 -4 -4 по сезону 1027.4 1017.9 +4.1
18 13.12 З 1 2600 м дымка ясно -0.7 -0.8 99 -3 -3 по сезону 1027.9 1018.4
21 13.12 ЮЗ 3 100 м туман ?/? -0.9 -0.9 100 -6 -6 по сезону 1028.5 1019.0
00 14.12 ЮЗ 3 100 м переохл. туман [диам. изморози 1 мм] ?/? -1.7 -1.7 100 -7 -7 по сезону 1028.5 1018.9
03 14.12 З 1 200 м переохл. туман [диам. изморози 2 мм] ?/? -2.3 -2.3 100 -5 -5 по сезону 1028.8 1019.2 -2.6
06 14.12 ЮВ 2 100 м переохл. туман [диам. изморози 3 мм] ?/? -3.1 -3.1 100 -7 -7 по сезону 1029.4 1019.8 -3.1
09 14.12 Ю 2 100 м переохл. туман [диам. гололёда 4 мм] ?/? -3.0 -3.0 100 -7 -7 по сезону 1030.3 1020.7
12 14.12 СВ 2 2300 м дымка {туман} [диам. сложн. отлож. 3 мм] 6/6 120 м
[St]
-1.3 -1.6 98 -5 -5 по сезону 1029.4 1019.8
15 14.12 В 3 100 м переохл. туман [диам. изморози 4 мм] ?/? -3.3 -3.3 100 -9 -9 прохладно 1030.2 1020.5 -1.1
18 14.12 СВ 2 100 м переохл. туман [диам. изморози 5 мм] ?/? -4.3 -4.4 99 -9 -9 прохладно 1030.0 1020.3
21 14.12 В 3 100 м переохл. туман [диам. изморози 5 мм] ?/? -4.4 -4.4 100 -10 -10 прохладно 1030.1 1020.4
00 15.12 В 2 100 м переохл. туман [диам. изморози 5 мм] ?/? -4.4 -4.4 100 -9 -9 по сезону 1029.7 1020.0
03 15.12 В 2 100 м переохл. туман [диам. изморози 6 мм] ?/? -4.3 -4.3 100 -9 -9 по сезону 1029.6 1019.9 -4.5
06 15.12 В 2 100 м переохл. туман [диам. изморози 8 мм] ?/? -4.3 -4.3 100 -9 -9 по сезону 1029.9 1020.2
09 15.12 В 1 100 м туман ?/? -3.8 -3.8 100 -6 -6 по сезону 1029.8 1020.1
12 15.12 В 2 100 м туман ?/? -2.4 -2.4 100 -7 -7 по сезону 1028.9 1019.3
15 15.12 В 2 100 м переохл. туман [диам. изморози 16 мм] ?/? -1.9 -1.9 100 -6 -6 по сезону 1029.3 1019.7 -1.9
18 15.12 ЮВ 2 300 м переохл. туман ?/? -1.7 -1.7 100 -6 -6 по сезону 1029.1 1019.5
21 15.12 Ю 1 100 м слабая переохл. морось (гололёд) {туман} [диам. сложн. отлож. 18 мм] ?/? -1.5 -1.5 100 -4 -4 по сезону 1028.9 1019.3
00 16.12 В 2 300 м переохл. туман {морось} ?/? -1.7 -1.7 100 -6 -6 по сезону 1028.6 1019.0
03 16.12 В 1 900 м переохл. туман [диам. сложн. отлож. 20 мм] ?/? -1.7 -1.7 100 -4 -4 по сезону 1028.9 1019.3 -2.1 0.0
06 16.12 В 1 6000 м в посл. час туман [диам. сложн. отлож. 18 мм] 10/8 180 м
[St Ac und]
-1.2 -1.3 99 -4 -4 по сезону 1029.3 1019.7
09 16.12 В 1 4600 м дымка [диам. сложн. отлож. 16 мм] 10/6 120 м
[St Ac und]
-0.2 -0.8 96 -2 -2 по сезону 1029.2 1019.7
12 16.12 В 2 600 м туман [диам. сложн. отлож. 0 мм] 10/6 90 м
[St Ac und]
+0.9 +0.8 99 -3 -3 по сезону 1028.5 1019.0
15 16.12 В 3 2200 м дымка {туман} 10/8 90 м
[Sc Ac und]
+0.9 +0.6 98 -4 -4 по сезону 1029.0 1019.5 +1.0
18 16.12 В 3 2400 м дымка {морось, туман} 10/10 60 м
[St]
+1.1 +0.8 98 -4 -4 по сезону 1028.6 1019.1
21 16.12 В 2 600 м туман ?/? +1.4 +1.4 100 -2 -2 по сезону 1028.4 1018.9
00 17.12 В 4 1100 м дымка {туман} 10/10 30 м
[St]
+1.4 +1.4 100 -4 -4 по сезону 1027.6 1018.1
03 17.12 В 2 200 м туман ?/? +1.7 +1.7 100 -2 -2 по сезону 1026.7 1017.3 +0.9 0.0
06 17.12 В 4 100 м туман ?/? +1.7 +1.7 100 -4 -4 по сезону 1026.1 1016.7
09 17.12 В 4 100 м туман ?/? +0.9 +0.9 100 -5 -5 по сезону 1025.1 1015.6
12 17.12 В 5 100 м туман ?/? +0.8 +0.8 100 -5 -5 по сезону 1022.9 1013.5
15 17.12 В 5 100 м туман ?/? +0.4 +0.4 100 -6 -6 по сезону 1021.9 1012.5 +2.0
18 17.12 В 4 200 м туман ?/? -0.2 -0.2 100 -6 -6 по сезону 1020.9 1011.4
21 17.12 В 5 2400 м дымка {туман} 10/10 120 м
[St]
0.0 -0.3 98 -6 -6 по сезону 1019.0 1009.6
00 18.12 В 6 3000 м слабая морось {туман} 10/10 90 м
[St]
+0.1 -0.5 96 -7 -7 по сезону 1018.0 1008.6
03 18.12 В 4 3900 м дымка {морось} 10/8 180 м
[St Ac und]
+0.4 -0.2 96 -5 -5 по сезону 1017.0 1007.6 -0.2 0.0
06 18.12 В 3 4300 м дымка {морось} 10/4 300 м
[St Ac und]
+0.9 +0.2 95 -4 -4 по сезону 1016.7 1007.3
09 18.12 В 2 5000 м в посл. час ливневой дождь 9/3 300 м
[Cb calv Ac trans]
+2.7 +2.0 95 -1 0 по сезону 1015.6 1006.3
12 18.12 В 2 6000 м дымка {ливн. осадки} 9/1 1000 м
[Cb calv Ac trans]
+4.2 +3.2 93 +1 +2 тепло 1014.6 1005.4
15 18.12 Ю 2 2400 м слабый дождь 10/10 150 м
[Sc]
+5.4 +4.8 96 +3 +3 тепло 1014.5 1005.3 +5.4 1
18 18.12 Ю 3 400 м слабый дождь {туман} туман ?/? +6.5 +6.4 99 +3 +3 тепло 1014.4 1005.2
21 18.12 ЮЗ 4 500 м слабый ливневой дождь туман ?/? +7.4 +7.3 99 +4 +4 тепло 1014.4 1005.3
00 19.12 ЮЗ 4 500 м слабый ливневой дождь туман ?/? +7.4 +7.3 99 +4 +4 тепло 1014.4 1005.3
03 19.12 З 4 4400 м в посл. час дождь {ливн. осадки} 10/9 90 м
[Frnb As op]
+6.8 +6.2 96 +3 +3 тепло 1014.7 1005.6 +5.4 4
06 19.12 С 2 8000 м слабый дождь {ливн. осадки} 10/8 90 м
[Sc Ac und]
+6.4 +6.0 97 +4 +4 тепло 1016.1 1006.9
09 19.12 Ю 1 10 км {дождь} 8/4 200 м
[Sc Ac trans]
+7.1 +5.0 86 +6 +7 тепло 1017.0 1007.8
12 19.12 СЗ 3 10 км {дождь} 9/9 450 м
[Sc]
+7.3 +5.1 86 +4 +4 тепло 1017.3 1008.1
15 19.12 З 3 8000 м слабая морось 10/10 180 м
[St]
+4.4 +3.4 93 +1 +1 тепло 1019.0 1009.7 +8.9 2
18 19.12 ЮЗ 5 2900 м дымка {морось} 10/10 120 м
[St]
+3.1 +2.6 97 -2 -2 по сезону 1019.7 1010.4
21 19.12 З 7-10
{10}
3100 м слабая морось 10/10 120 м
[St]
+2.2 +1.6 96 -4 -4 по сезону 1019.8 1010.4
00 20.12 З 4 4000 м дымка {морось} 10/10 200 м
[St]
+2.1 +1.0 92 1020.0
03 20.12 ЮЗ 6 4500 м дымка 9/9 180 м
[St]
+1.1 +0.3 94 -5 -5 по сезону 1019.3 1009.9 +1.1 0.0
06 20.12 ЮЗ 6 300 м туман ?/? +1.2 +1.2 100 -5 -5 по сезону 1019.2 1009.8 +0.8
09 20.12 ЮЗ 5 5000 м дымка {туман} 10/6 240 м
[Sc Ac und]
+4.5 +3.4 93 -1 -0 по сезону 1018.0 1008.7

 

Обсудить погоду в Ростове-на-Дону на МЕТЕОФОРУМЕ

 

Местоположение метеостанции Ростов-на-Дону (Ростовская область, Россия): широта 47.27 долгота 39.82 высота над уровнем моря 75 м.

В архиве по умолчанию представлена погода в Ростове-на-Дону за последнюю неделю. Архивные данные за месяц целиком и за предыдущие месяцы, начиная с января 2011 года, Вы можете получить, выбрав интересующий диапазон дат из раскрывающегося списка и нажав кнопку "Ввод!".

Внимание! Время в таблицах - всемирное. Для получения местного времени необходимо прибавить поправку, которая в Ростове-на-Дону равна 3 ч.

Ветер - указаны скорость ветра в м/с - средняя за 10 мин, порывы в срок и между сроками (в фигурных скобках) и направление, откуда дует ветер: С - северный, СВ - северо-восточный, В - восточный, ЮВ - юго-восточный, Ю - южный, ЮЗ - юго-западный, З - западный, СЗ - северо-западный.
Видимость - горизонтальная дальность видимости в метрах или километрах. При видимости от 1 до 10 км при отсутствии осадков обычно наблюдается дымка, при ухудшении видимости до 1 км и менее - туман. В сухую погоду видимость может ухудшаться дымом, пылью или мглою.
Явления - указаны атсосферные явления, наблюдавшиеся в срок или в последний час перед сроком; фигурными скобками обозначены явления, наблюдавшиеся между сроками (за 1-3 часа до срока); квадратными скобками обозначены град или гололедные отложения с указанием их диаметра в мм.
Облачность - указаны через наклонную черту общая и нижняя облачность в баллах и высота нижней границы облаков в метрах; квадратными скобками обозначены формы облаков: Ci - перистые, Cs - перисто-слоистые, Cc - перисто-кучевые, Ac - высококучевые, As - высокослоистые, Sc - слоисто-кучевые, Ns - слоисто-дождевые, Cu - кучевые, Cb - кучево-дождевые. Подробнее классификацию облаков см. в Атласе облаков (PDF).
T - Температура воздуха - температура, измеренная на высоте 2 м над землей.
Td - Температура точки росы - температура, при понижении до которой содержащийся в воздухе водяной пар достигнет насыщения.
f - Относительная влажность воздуха - влажноcть воздуха, измеренная на высоте 2 м над землей.
Te - Эффективная температура - температура, которую ощущает одетый по сезону человек в тени. Характеристика душности погоды. При расчете учитывается влияние влажности воздуха и скорости ветра на теплоощущения человека.
Tes - Эффективная температура на солнце - температура, которую ощущает человек, с поправкой на солнечный нагрев. Характеристика знойности погоды. Зависит от высоты солнца над горизонтом, облачности и скорости ветра. Ночью, в пасмурную погоду, а также при ветре 12 м/с и более поправка равна нулю.
P - Атмосферное давление - приведенное к уровню моря атмосферное давление.
Po - Атмосферное давление - измеренное на уровне метеостанции атмосферное давление.
Tmin - Минимальная температура - минимум температуры воздуха на высоте 2 м над землей.
Tmax - Максимальная температура - максимум температуры воздуха на высоте 2 м над землей.
R - Количество осадков - Количество выпавших осадков, мм.
S - Снежный покров - Высота снежного покрова, см.